[[{"header":{"parameterUnit":"m.s-1","parameterCategory":1,"la1":30.2991,"la2":30.254,"lo1":-89.0895,"lo2":-89.0444,"dy":0.0017,"dx":0.0017,"nx":28,"ny":28,"refTime":"2024-12-23T09:00:00:Z","depth":0,"parameterNumber":2,"parameterNumberName":"U-component_of_WINDS"},"data":[0,0,0,0,0,0,0,0,0,0,0,0,0,0,0,0,0,0,0,0,0,0,0,0,0,0,0,0,0,0,0,0,0,0,0,0,0,0,0,0,0,0,0,0,0,0,0,0,0,0,0,0,0,0,0,0,0,0,-4.8049,-4.8049,0,-4.8042,-4.8042,-4.8042,-4.7876,-4.7872,-4.7868,-4.7863,-4.7859,-4.7863,-4.7866,0,0,0,0,0,0,0,0,0,0,0,0,0,-4.7922,-4.7926,-4.8049,-4.8049,-4.8049,-4.8043,-4.8042,-4.8042,-4.7877,-4.7872,-4.7866,-4.7862,-4.7857,-4.7862,-4.7867,0,0,0,0,0,0,0,0,0,0,0,0,0,-4.7953,-4.7927,-4.8049,-4.7966,-4.7958,-4.8043,-4.8042,-4.8042,-4.7878,-4.7871,-4.7865,-4.7859,-4.7856,-4.7862,-4.7867,-4.8032,0,0,-4.7885,-4.7888,0,0,0,0,0,0,0,0,-4.7951,-4.7958,-4.7978,-4.7972,-4.7963,-4.7953,-4.7996,-4.8039,-4.788,-4.7909,-4.7863,-4.7856,-4.7896,-4.7898,-4.7911,-4.8032,-4.8031,-4.7886,-4.7889,-4.7892,-4.7893,0,0,0,0,0,0,0,-4.7949,-4.7957,-4.8047,-4.7979,-4.797,-4.793,-4.7927,-4.8003,-4.7938,-4.7906,-4.7893,-4.7895,-4.789,-4.7905,-4.7909,-4.8031,-4.7885,-4.7891,-4.7894,-4.7896,-4.8288,-4.8295,0,0,0,0,0,0,-4.7959,-4.7956,-4.8047,-4.8046,-4.7941,-4.7937,-4.7934,-4.7963,-4.7937,-4.7927,-4.79,-4.7887,-4.7899,-4.7903,-4.7909,-4.81,-4.7892,-4.7897,-4.79,-4.8281,-4.829,-4.8297,0,0,0,0,0,0,-4.7956,-4.7968,-4.8047,-4.7998,-4.8005,-4.7946,-4.798,-4.7967,-4.7981,-4.7933,-4.7921,-4.7927,-4.7894,-4.79,-4.8002,-4.8098,-4.79,-4.7905,-4.8273,-4.8284,-4.8294,-4.8485,0,0,0,0,0,0,-4.7954,-4.7968,-4.803,-4.8001,-4.8008,-4.8141,-4.7986,-4.7971,-4.7991,-4.7974,-4.7955,-4.7946,-4.7889,-4.7995,-4.8008,-4.8102,-4.7909,-4.8264,-4.8278,-4.829,-4.847,-4.85,-4.8527,0,0,0,0,0,-4.795,-4.8084,-4.8033,-4.8045,-4.8083,-4.8147,-4.8151,-4.8083,-4.8,-4.8061,-4.8031,-4.7947,-4.8085,-4.8007,-4.802,-4.8118,-4.8258,-4.8274,-4.8289,-4.8457,-4.8494,-4.8526,0,0,0,0,0,0,-4.8126,-4.8078,-4.8022,-4.8151,-4.8154,-4.8119,-4.8194,-4.8124,-4.8151,-4.8134,-4.8048,-4.8046,-4.8162,-4.8149,-4.8063,-4.8276,-4.8157,-4.8176,-4.828,-4.8315,-4.8343,-4.8344,-4.7914,0,0,0,0,0,-4.8179,-4.8234,-4.819,-4.8308,-4.8312,-4.8254,-4.8279,-4.8225,-4.8226,-4.8226,-4.8203,-4.8207,-4.8251,-4.8282,-4.832,-4.8467,-4.8461,-4.8541,-4.8569,-4.8593,-4.8611,-4.8689,-4.8724,-4.8349,-4.8348,-4.8348,0,0,-4.8291,-4.8272,-4.8312,-4.8343,-4.8339,-4.8399,-4.8256,-4.8324,-4.8368,-4.8237,-4.8332,-4.8315,-4.8314,-4.844,-4.8494,-4.8433,-4.8713,-4.8613,-4.8632,-4.8637,-4.8709,-4.8744,-4.8776,-4.8359,-4.8357,-4.8356,0,0,-4.8525,-4.8516,-4.8613,-4.8613,-4.8609,-4.8569,-4.8593,-4.8569,-4.8552,-4.8646,-4.855,-4.8601,-4.8679,-4.8682,-4.8694,-4.8932,-4.8857,-4.8947,-4.9096,-4.9173,-4.9203,-4.9229,-4.9315,-4.9346,-4.8965,-4.8965,-4.8966,0,-4.8664,-4.8749,-4.8673,-4.8748,-4.8766,-4.8649,-4.8749,-4.8752,-4.8761,-4.8777,-4.8708,-4.8804,-4.8795,-4.8921,-4.8979,-4.8993,-4.9018,-4.8949,-4.9205,-4.923,-4.9253,-4.9334,-4.9366,-4.8976,-4.8975,-4.8974,-4.8973,0,-4.8922,-4.8982,-4.9062,-4.9074,-4.91,-4.9187,-4.9125,-4.9161,-4.9106,-4.9074,-4.9173,-4.9158,-4.9192,-4.9217,-4.9165,-4.9337,-4.9299,-4.922,-4.9098,-4.9301,-4.9376,-4.9406,-4.8992,-4.8988,-4.8985,-4.8982,0,0,-4.9265,-4.9235,-4.9265,-4.927,-4.9258,-4.9304,-4.9387,-4.9419,-4.9452,-4.9463,-4.9531,-4.9601,-4.9527,-4.9541,-4.9488,-4.9556,-4.9747,-4.9467,-4.9466,-4.9521,-4.9937,-4.9997,-5.0034,-4.9696,-4.9702,-4.9706,-4.9937,0,-4.9492,-4.9631,-4.9565,-4.9712,-4.9768,-4.9659,-4.9731,-4.9733,-4.9706,-4.975,-4.9719,-4.9771,-4.9669,-4.9677,-4.9739,-4.971,-4.9829,-4.9693,-4.976,-4.9763,-4.9764,-5.0073,-5.0137,-5.0355,-4.9966,-4.997,-4.9974,0,-4.9775,-4.9798,-4.995,-4.9929,-4.995,-5.0016,-5.0042,-5.0085,-5.0085,-5.006,-5.0078,-5.0009,-5.009,-4.997,-5.0081,-4.999,-5.0013,-5.0004,-5.001,-5.0014,-4.9881,-5.0086,-5.0423,-5.0457,-5.0019,-5.0015,-5.0012,0,-5.0012,-5.008,-5.0181,-5.0188,-5.0166,-5.0215,-5.0208,-5.0202,-5.0226,-5.0249,-5.0264,-5.0296,-5.0314,-5.0342,-5.0284,-5.0202,-5.0404,-5.0279,-5.0387,-5.0389,-5.0435,-5.0433,-5.0781,-5.045,-5.0449,-5.0449,-5.0448,0,-5.0272,-5.037,-5.0287,-5.0349,-5.0456,-5.038,-5.0488,-5.047,-5.0466,-5.0523,-5.0431,-5.0487,-5.0407,-5.0456,-5.0412,-5.0512,-5.052,-5.0503,-5.0491,-5.0512,-5.0515,-5.0527,-5.051,-5.0457,-5.0455,-5.0454,-5.0452,0,-5.0554,-5.0503,-5.0605,-5.0576,-5.0571,-5.0652,-5.0627,-5.0684,-5.0651,-5.0725,-5.0738,-5.0686,-5.0739,-5.0684,-5.0733,-5.0703,-5.0838,-5.0802,-5.0838,-5.0828,-5.094,-5.0931,-5.1309,-5.1355,-5.0994,-5.0998,-5.1001,0,-5.0724,-5.0796,-5.0776,-5.0808,-5.0806,-5.0858,-5.0883,-5.0812,-5.0842,-5.0848,-5.0905,-5.0949,-5.0981,-5.1071,-5.1039,-5.1076,-5.1041,-5.1171,-5.1046,-5.1066,-5.1044,-5.1041,-5.1049,-5.1197,-5.1201,-5.1205,-5.1208,0,-5.1031,-5.1002,-5.104,-5.1072,-5.1103,-5.1124,-5.1138,-5.1169,-5.1096,-5.1134,-5.1187,-5.1212,-5.1262,-5.1309,-5.1337,-5.133,-5.1259,-5.1247,-5.1275,-5.1297,-5.1315,-5.1308,-5.0908,-5.1239,-5.1236,-5.1234,-5.1232,-5.1231,-5.1262,-5.1322,-5.1318,-5.1364,-5.1367,-5.1383,-5.1435,-5.1409,-5.1451,-5.1486,-5.1442,-5.1508,-5.1507,-5.1537,-5.154,-5.1591,-5.1536,-5.1575,-5.1585,-5.1596,-5.1613,-5.1307,-5.1596,-5.1595,-5.1594,-5.1593,-5.1592,0,-5.1565,-5.1557,-5.1601,-5.1623,-5.1661,-5.1589,-5.1601,-5.1637,-5.1696,-5.1701,-5.1735,-5.1796,-5.1841,-5.1813,-5.1851,-5.1898,-5.1866,-5.191,-5.1906,-5.1906,-5.166,-5.1633,-5.1936,-5.1936,-5.1935,-5.1935,-5.1935,-5.1935,-5.1727,-5.1825,-5.1797,-5.1897,-5.1887,-5.1951,-5.1964,-5.1978,-5.1982,-5.2055,-5.2092,-5.2073,-5.2065,-5.2103,-5.2141,-5.2132,-5.2151,-5.2208,-5.2187,-5.1957,-5.1924,-5.1891,-5.1866,-5.2212,-5.2213,-5.2429,-5.2431,-5.2433]},{"header":{"parameterUnit":"m.s-1","parameterCategory":1,"la1":30.2991,"la2":30.254,"lo1":-89.0895,"lo2":-89.0444,"dy":0.0017,"dx":0.0017,"nx":28,"ny":28,"refTime":"2024-12-23T09:00:00:Z","depth":0,"parameterNumber":3,"parameterNumberName":"V-component_of_WINDS"},"data":[0,0,0,0,0,0,0,0,0,0,0,0,0,0,0,0,0,0,0,0,0,0,0,0,0,0,0,0,0,0,0,0,0,0,0,0,0,0,0,0,0,0,0,0,0,0,0,0,0,0,0,0,0,0,0,0,0,0,0.0498,0.0498,0,0.0481,0.048,0.048,0.0523,0.0524,0.0525,0.0527,0.0505,0.0503,0.0502,0,0,0,0,0,0,0,0,0,0,0,0,0,0.0565,0.0564,0.0498,0.0498,0.0497,0.0481,0.048,0.048,0.0522,0.0524,0.0526,0.0527,0.0506,0.0504,0.0502,0,0,0,0,0,0,0,0,0,0,0,0,0,0.0541,0.0563,0.0498,0.0517,0.0518,0.0481,0.048,0.048,0.0522,0.0524,0.0526,0.0528,0.0507,0.0504,0.0501,0.0444,0,0,0.0493,0.0492,0,0,0,0,0,0,0,0,0.0542,0.0538,0.0514,0.0515,0.0517,0.0506,0.0496,0.0468,0.0522,0.052,0.0527,0.0529,0.0504,0.0501,0.0493,0.0443,0.0442,0.0493,0.0491,0.049,0.0489,0,0,0,0,0,0,0,0.0544,0.0539,0.0491,0.0514,0.0515,0.0525,0.0524,0.0491,0.0501,0.0521,0.0524,0.0521,0.0505,0.0496,0.0493,0.0442,0.0493,0.049,0.0489,0.0487,0.0344,0.0342,0,0,0,0,0,0,0.0543,0.054,0.0491,0.049,0.0535,0.0522,0.0521,0.0507,0.0501,0.0502,0.052,0.0523,0.05,0.0496,0.0493,0.0425,0.049,0.0487,0.0486,0.0346,0.0344,0.0341,0,0,0,0,0,0,0.0545,0.0539,0.0492,0.0516,0.0511,0.0519,0.0503,0.0506,0.0497,0.0501,0.0502,0.0509,0.0501,0.0497,0.0456,0.0425,0.0486,0.0483,0.0349,0.0345,0.0342,0.0289,0,0,0,0,0,0,0.0546,0.0539,0.0517,0.0515,0.051,0.0456,0.0502,0.0504,0.0493,0.0498,0.0491,0.0492,0.0502,0.046,0.0453,0.0422,0.0481,0.0352,0.0347,0.0344,0.0294,0.0285,0.0277,0,0,0,0,0,0.0549,0.0502,0.0516,0.051,0.0483,0.0454,0.0451,0.0465,0.049,0.0468,0.0471,0.0492,0.043,0.0456,0.0448,0.0416,0.0354,0.0349,0.0344,0.0298,0.0287,0.0277,0,0,0,0,0,0,0.0498,0.0502,0.0517,0.0469,0.0461,0.0462,0.0434,0.0453,0.0436,0.0441,0.0459,0.0457,0.0413,0.0411,0.0439,0.0361,0.0396,0.0389,0.0363,0.0353,0.0344,0.0345,0.0479,0,0,0,0,0,0.0482,0.0459,0.0463,0.042,0.0416,0.0426,0.0414,0.0426,0.0418,0.0414,0.0414,0.0404,0.0383,0.0368,0.0349,0.0295,0.0294,0.0269,0.0261,0.0254,0.0247,0.0219,0.0208,0.0325,0.0325,0.0325,0,0,0.0446,0.0446,0.043,0.041,0.0405,0.038,0.0422,0.0394,0.0376,0.0409,0.0371,0.0371,0.0362,0.0315,0.0294,0.0311,0.0215,0.0248,0.0242,0.0239,0.0213,0.0202,0.0192,0.0322,0.0323,0.0323,0,0,0.0369,0.0367,0.0331,0.0326,0.032,0.0327,0.0319,0.0317,0.0318,0.0281,0.0306,0.0285,0.0247,0.024,0.0231,0.0155,0.0173,0.0148,0.0103,0.0075,0.0066,0.0057,0.0029,0.0019,0.0142,0.0142,0.0142,0,0.0326,0.0291,0.031,0.0281,0.0271,0.0303,0.0266,0.026,0.0247,0.0239,0.026,0.0215,0.0211,0.0163,0.0144,0.0137,0.0127,0.0148,0.0066,0.0058,0.005,0.0024,0.0013,0.0139,0.0139,0.014,0.014,0,0.0237,0.0213,0.0185,0.0173,0.016,0.0127,0.0141,0.0126,0.014,0.0146,0.0108,0.0105,0.0085,0.0075,0.0088,0.0029,0.004,0.0063,0.0098,0.0036,0.0011,0.0001,0.0134,0.0136,0.0136,0.0137,0,0,0.0125,0.0127,0.0115,0.0111,0.0107,0.0088,0.0058,0.004,0.0027,0.0018,-0.0009,-0.0039,-0.0017,-0.0027,-0.0015,-0.0039,-0.01,-0.0013,-0.0013,-0.003,-0.0165,-0.0184,-0.0196,-0.0086,-0.0088,-0.0089,-0.0165,0,0.0048,-0.0004,0.0014,-0.004,-0.0062,-0.0031,-0.0058,-0.0063,-0.0058,-0.0077,-0.0072,-0.0094,-0.0063,-0.0069,-0.0091,-0.0088,-0.0127,-0.0082,-0.0112,-0.0113,-0.0112,-0.0209,-0.0229,-0.03,-0.0174,-0.0176,-0.0177,0,-0.0049,-0.006,-0.0116,-0.0114,-0.0123,-0.0147,-0.0161,-0.0179,-0.0184,-0.0178,-0.0188,-0.017,-0.02,-0.0163,-0.0205,-0.0174,-0.0185,-0.0185,-0.0187,-0.0192,-0.0151,-0.0217,-0.0322,-0.0334,-0.0192,-0.0191,-0.019,0,-0.0127,-0.0156,-0.0192,-0.0197,-0.0196,-0.0214,-0.0214,-0.0217,-0.0228,-0.024,-0.0247,-0.0262,-0.0271,-0.0284,-0.0271,-0.0244,-0.0315,-0.0276,-0.0313,-0.0313,-0.0331,-0.0331,-0.0442,-0.0335,-0.0335,-0.0335,-0.0334,0,-0.0216,-0.0251,-0.0227,-0.025,-0.0289,-0.0267,-0.0306,-0.0303,-0.0305,-0.0327,-0.0301,-0.0322,-0.0302,-0.0322,-0.0311,-0.0348,-0.0352,-0.0349,-0.0347,-0.0353,-0.0354,-0.0362,-0.0357,-0.0337,-0.0337,-0.0336,-0.0336,0,-0.0311,-0.0296,-0.0334,-0.0328,-0.0327,-0.0356,-0.0352,-0.0373,-0.0365,-0.0393,-0.0398,-0.0386,-0.0407,-0.0394,-0.0417,-0.0409,-0.0458,-0.0447,-0.0456,-0.0454,-0.0491,-0.0489,-0.0613,-0.0629,-0.051,-0.0512,-0.0512,0,-0.0369,-0.0395,-0.0392,-0.0404,-0.0405,-0.0425,-0.0435,-0.0415,-0.0427,-0.0433,-0.0454,-0.0472,-0.0486,-0.0522,-0.0516,-0.0533,-0.0523,-0.0566,-0.0526,-0.0531,-0.0526,-0.0525,-0.0528,-0.0575,-0.0576,-0.0577,-0.0578,0,-0.0475,-0.0466,-0.0481,-0.0493,-0.0506,-0.0515,-0.0522,-0.0534,-0.0512,-0.0527,-0.0548,-0.0559,-0.058,-0.0599,-0.0613,-0.0614,-0.0593,-0.059,-0.0599,-0.0608,-0.0612,-0.0611,-0.048,-0.0588,-0.0587,-0.0586,-0.0586,-0.0585,-0.0554,-0.0576,-0.0576,-0.0594,-0.0596,-0.0603,-0.0622,-0.0615,-0.0631,-0.0647,-0.0633,-0.0658,-0.0661,-0.0676,-0.068,-0.07,-0.0683,-0.0696,-0.07,-0.0704,-0.071,-0.0607,-0.0702,-0.0701,-0.0701,-0.0701,-0.0701,0,-0.066,-0.0658,-0.0674,-0.0683,-0.0697,-0.0673,-0.0679,-0.0693,-0.0715,-0.0718,-0.0732,-0.0755,-0.0773,-0.0767,-0.0783,-0.08,-0.0791,-0.0805,-0.0805,-0.0805,-0.0724,-0.0714,-0.0812,-0.0812,-0.0812,-0.0812,-0.0812,-0.0812,-0.0717,-0.0752,-0.0742,-0.0778,-0.0775,-0.0799,-0.0804,-0.081,-0.0813,-0.084,-0.0854,-0.0848,-0.0848,-0.0864,-0.0879,-0.0877,-0.0885,-0.0903,-0.0897,-0.0822,-0.0811,-0.0801,-0.0792,-0.0904,-0.0904,-0.0977,-0.0978,-0.0979]}]]